Weather History for KMNN - December, 2013

Change the Weather History Date:

Wednesday, December 4, 2013

  Actual Average (KDLZ) Record (KDLZ)
Temperature  
Mean Temperature 50 °F -  
Max Temperature 59 °F 42 °F 74 °F (1982)
Min Temperature 44 °F 24 °F -2 °F (1966)
Degree Days  
Heating Degree Days 14    
Moisture  
Dew Point 47 °F    
Average Humidity 81    
Maximum Humidity 90    
Minimum Humidity 72    
Precipitation  
Precipitation 0.00 in - - ()
Sea Level Pressure  
Sea Level Pressure 29.84 in    
Wind  
Wind Speed 9 mph (SSE)    
Max Wind Speed 18 mph    
Max Gust Speed 20 mph    
Visibility 7 miles    
Events      
Averages and records for this station are not official NWS values.
T = Trace of Precipitation, MM = Missing Value Source: NWS Daily Summary

Daily Weather History Graph

Daily Weather History Graph

Search for Another Location

Airport or City:

Trip Planner

Search our weather history database for the weather conditions in past years. The results will help you decide how hot, cold, wet, or windy it might be!

Date:

Astronomy

Dec. 04, 2013 Rise Set
Actual Time 7:39 AM EST 5:05 PM EST
Civil Twilight 7:09 AM EST 5:35 PM EST
Nautical Twilight 6:35 AM EST 6:09 PM EST
Astronomical Twilight 6:02 AM EST 6:42 PM EST
Moon 9:06 AM EST (12/4) 7:14 PM EST (12/4)
Length of Visible Light 10h 26m
Length of Day
9h 25m
Waxing Crescent, 4% of the Moon is Illuminated
Dec 4
Waxing Crescent
Dec 9
First Quarter
Dec 17
Full
Dec 25
Last Quarter
Jan 1
New

Hourly Weather History & Observations

Time (EST) Temp. Windchill Dew Point Humidity Pressure Visibility Wind Dir Wind Speed Gust Speed Precip Events Conditions
12:53 AM 44.1 °F 42.5 °F 41.0 °F 89% 29.90 in 5.0 mi South 3.5 mph - N/A   Overcast
1:53 AM 44.1 °F 39.0 °F 41.0 °F 89% 29.87 in 5.0 mi SSE 9.2 mph - N/A   Overcast
2:53 AM 44.1 °F 40.8 °F 41.0 °F 89% 29.86 in 5.0 mi SSE 5.8 mph - N/A   Overcast
3:53 AM 44.1 °F 40.8 °F 41.0 °F 89% 29.87 in 6.0 mi South 5.8 mph - N/A   Overcast
4:53 AM 45.0 °F 41.2 °F 41.0 °F 86% 29.89 in 6.0 mi South 6.9 mph - N/A   Overcast
5:53 AM 46.0 °F 43.1 °F 42.1 °F 86% 29.91 in 7.0 mi SSE 5.8 mph - N/A   Overcast
6:53 AM 45.0 °F 40.6 °F 42.1 °F 90% 29.91 in 6.0 mi SSE 8.1 mph - N/A   Overcast
7:53 AM 46.0 °F 41.9 °F 42.1 °F 86% 29.90 in 6.0 mi SSE 8.1 mph - N/A   Overcast
8:53 AM 48.0 °F - 44.1 °F 86% 29.92 in 5.0 mi South 8.1 mph - N/A   Overcast
9:53 AM 50.0 °F - 45.0 °F 83% 29.92 in 5.0 mi SSE 8.1 mph - N/A   Haze
10:04 AM 50.0 °F - 46.4 °F 87% 29.91 in 5.0 mi SSE 6.9 mph - N/A   Mostly Cloudy
10:50 AM 51.8 °F - 46.4 °F 82% 29.90 in 5.0 mi South 8.1 mph - N/A   Haze
10:53 AM 52.0 °F - 46.9 °F 83% 29.91 in 5.0 mi SSE 10.4 mph - N/A   Haze
11:16 AM 53.6 °F - 48.2 °F 82% 29.89 in 5.0 mi SSE 10.4 mph - N/A   Haze
11:41 AM 53.6 °F - 48.2 °F 82% 29.86 in 5.0 mi South 10.4 mph - N/A   Haze
11:53 AM 54.0 °F - 48.9 °F 83% 29.87 in 6.0 mi South 12.7 mph - N/A   Haze
12:07 PM 53.6 °F - 48.2 °F 82% 29.85 in 6.0 mi SSE 9.2 mph - N/A   Haze
12:50 PM 55.4 °F - 48.2 °F 77% 29.84 in 6.0 mi South 15.0 mph - N/A   Haze
12:53 PM 55.9 °F - 48.9 °F 77% 29.85 in 6.0 mi South 15.0 mph - N/A   Haze
1:27 PM 55.4 °F - 48.2 °F 77% 29.81 in 6.0 mi SSE 15.0 mph 19.6 mph N/A   Haze
1:53 PM 57.0 °F - 50.0 °F 77% 29.81 in 6.0 mi South 11.5 mph - N/A   Haze
2:53 PM 57.0 °F - 48.9 °F 74% 29.79 in 7.0 mi SSE 12.7 mph - N/A   Mostly Cloudy
3:17 PM 57.2 °F - 48.2 °F 72% 29.78 in 8.0 mi SSE 12.7 mph - N/A   Overcast
3:53 PM 57.0 °F - 48.9 °F 74% 29.79 in 8.0 mi SSE 15.0 mph - N/A   Overcast
4:53 PM 55.9 °F - 48.9 °F 77% 29.78 in 8.0 mi SSE 16.1 mph - 0.00 in   Mostly Cloudy
5:09 PM 57.2 °F - 48.2 °F 72% 29.76 in 8.0 mi SSE 11.5 mph - N/A   Mostly Cloudy
5:26 PM 55.4 °F - 48.2 °F 77% 29.77 in 9.0 mi SSE 10.4 mph - N/A   Overcast
5:53 PM 55.9 °F - 48.9 °F 77% 29.78 in 9.0 mi SSE 9.2 mph - N/A   Overcast
6:49 PM 55.4 °F - 48.2 °F 77% 29.77 in 9.0 mi SSE 10.4 mph - N/A   Mostly Cloudy
6:53 PM 55.9 °F - 48.9 °F 77% 29.78 in 9.0 mi SSE 11.5 mph - N/A   Mostly Cloudy
7:53 PM 57.0 °F - 50.0 °F 77% 29.77 in 9.0 mi SSE 12.7 mph - N/A   Mostly Cloudy
8:53 PM 57.0 °F - 50.0 °F 77% 29.76 in 10.0 mi South 12.7 mph - N/A   Mostly Cloudy
9:53 PM 57.9 °F - 50.0 °F 75% 29.76 in 10.0 mi South 16.1 mph - N/A   Mostly Cloudy
10:53 PM 57.9 °F - 51.1 °F 78% 29.75 in 10.0 mi South 16.1 mph - N/A   Scattered Clouds
11:53 PM 59.0 °F - 52.0 °F 78% 29.75 in 10.0 mi SSW 18.4 mph - N/A   Clear